Regional Weather Roundup
Issued by NWS

Home | Current Version | Previous Version | Text Only | Print | Product List | Glossary Off
Versions: 1 2 3 4 5 6 7 8 9 10 11 12 13 14 15 16 17 18 19 20 21 22 23 24 25 26 27 28 29 30 31 32 33 34 35 36 37 38 39 40 41 42 43 44 45 46 47 48 49 50

000
ASUS44 KMEG 231810
RWRTN
TENNESSEE HOURLY STATE WEATHER ROUNDUP
NATIONAL WEATHER SERVICE MEMPHIS TN
100 PM CDT THU OCT 23 2014

TNZ002-004-019-021-049-052-054-088>092-231900-
WEST TENNESSEE

CITY           SKY/WX    TMP DP  RH WIND       PRES   REMARKS
MEMPHIS INTL   CLOUDY    64  41  42 CALM      30.18F
NWS MEMPHIS      N/A     63 N/A N/A MISG        N/A
JACKSON        PTSUNNY   65  43  44 N5        30.17F
DYERSBURG      CLOUDY    61  37  41 CALM      30.20F
UNION CITY     SUNNY     55  45  67 NE5       30.19F
PARIS          SUNNY     61  39  44 VRB3      30.19F
HUNTINGDON     PTSUNNY   60  41  49 CALM      30.18F
LEXINGTON      SUNNY     61  43  51 N5        30.15F
SAVANNAH       SUNNY     63  45  51 CALM      30.16F
$$

TNZ008-025-027-028-033-062-065-066-231900-
NORTH MIDDLE TENNESSEE

CITY           SKY/WX    TMP DP  RH WIND       PRES   REMARKS
NASHVILLE      PTSUNNY   62  41  46 NE5       30.17F
CLARKSVILLE    MOSUNNY   61  43  51 VRB6      30.19F
SMYRNA         SUNNY     63  42  46 N6        30.18F
COOKEVILLE     SUNNY     61  43  51 N5        30.15F
CROSSVILLE     SUNNY     60  37  42 NE7       30.15F
$$

TNZ061-075-076-078-094-096-097-231900-
SOUTH MIDDLE TENNESSEE

CITY           SKY/WX    TMP DP  RH WIND       PRES   REMARKS
FAYETTEVILLE   SUNNY     61  37  41 CALM      30.14F
TULLAHOMA      SUNNY     61  39  44 N6        30.15F
WINCHESTER     SUNNY     61  43  51 VRB3      30.14F
MCMINNVILLE    SUNNY     61  45  55 CALM      30.15F
COLUMBIA       SUNNY     63  45  51 CALM      30.15F
SHELBYVILLE    SUNNY     64  45  48 CALM      30.16F
$$

TNZ017-018-042-046-047-231900-
NORTHEAST TENNESSEE

CITY           SKY/WX    TMP DP  RH WIND       PRES   REMARKS
TRI CITIES     MOSUNNY   55  40  56 E7        30.16F
ELIZABETHTON   PTCLDY    55  39  54 W8        30.14F
$$

TNZ012-013-036-069-073-074-231900-
CENTRAL EAST TENNESSEE

CITY           SKY/WX    TMP DP  RH WIND       PRES   REMARKS
KNOXVILLE      MOSUNNY   60  42  51 NE10      30.13F
OAK RIDGE      SUNNY     61  41  47 VRB5      30.16F
GATLINBURG     CLEAR     59  41  51 NE7       30.14F
MORRISTOWN     CLEAR     55  39  54 E7        30.16F
$$

TNZ083-085-099-231900-
SOUTHEAST TENNESSEE

CITY           SKY/WX    TMP DP  RH WIND       PRES   REMARKS
CHATTANOOGA    PTSUNNY   62  42  47 N10       30.14F
$$

SKY/WX REPORTED AS FAIR MEANS FEW OR NO CLOUDS BELOW
12 THOUSAND FEET.




USA.gov is the U.S. government's official web portal to all federal, state and local government web resources and services.